OE3WYC-1 Weather Reports


time (UTC)temp
C
wind
direction
speed
KPH
gust
KPH
rain 1hr
cm
rain 24hr
cm
rain mn
cm
humidity
%
barometer
mb
20260507212003 13 202 0.0 6.4 0.00 0.00 0.00 81 1014.2
20260507211505 13 203 0.0 6.4 0.00 0.00 0.00 81 1014.3
20260507211004 13 203 0.0 4.8 0.00 0.00 0.00 81 1014.2
20260507210503 13 203 0.0 8.0 0.00 0.00 0.00 81 1014.2
20260507210003 13 203 0.0 8.0 0.00 0.00 0.00 81 1014.2
20260507205505 13 203 0.0 3.2 0.00 0.00 0.00 81 1014.3
20260507205004 13 203 0.0 9.7 0.00 0.00 0.00 81 1014.3
20260507204504 13 203 0.0 9.7 0.00 0.00 0.00 81 1014.3
20260507204003 13 203 0.0 4.8 0.00 0.00 0.00 81 1014.1
20260507203505 13 203 0.0 11.3 0.00 0.00 0.00 81 1014.0
20260507203003 13 203 0.0 11.3 0.00 0.00 0.00 81 1014.0
20260507202504 13 203 0.0 12.9 0.00 0.00 0.00 81 1013.9
20260507202004 13 203 0.0 12.9 0.00 0.00 0.00 80 1013.9
20260507201505 13 203 0.0 6.4 0.00 0.00 0.00 80 1013.9
20260507201004 13 203 0.0 12.9 0.00 0.00 0.00 80 1013.9
20260507200504 13 203 0.0 12.9 0.00 0.00 0.00 80 1014.0
20260507200004 13 203 0.0 12.9 0.00 0.00 0.00 80 1014.0
20260507195505 13 203 0.0 9.7 0.00 0.00 0.00 80 1013.9
20260507195004 13 203 9.7 11.3 0.00 0.00 0.00 79 1013.9
20260507194503 13 203 0.0 16.1 0.00 0.00 0.00 79 1013.9
20260507194004 13 203 11.3 16.1 0.00 0.00 0.00 79 1013.7
20260507193505 13 201 6.4 9.7 0.00 0.00 0.00 79 1013.7
20260507193003 14 201 0.0 17.7 0.00 0.00 0.00 79 1013.4
20260507192004 14 203 0.0 12.9 0.00 0.00 0.00 79 1013.4
20260507191505 14 203 3.2 9.7 0.00 0.00 0.00 78 1013.5
20260507190504 14 203 0.0 1.6 0.00 0.00 0.00 78 1013.3
20260507185004 14 203 0.0 8.0 0.00 0.00 0.00 77 1012.8
20260507184003 14 203 0.0 11.3 0.00 0.00 0.00 77 1012.7
20260507183505 14 203 0.0 11.3 0.00 0.00 0.00 77 1012.7
20260507183004 14 203 0.0 9.7 0.00 0.00 0.00 76 1012.6
20260507182504 14 203 0.0 6.4 0.00 0.00 0.00 76 1012.6
20260507182004 15 203 0.0 11.3 0.00 0.00 0.00 75 1012.6
20260507181505 15 203 0.0 11.3 0.00 0.00 0.00 75 1012.5
20260507181003 15 202 0.0 11.3 0.00 0.00 0.00 75 1012.4
20260507180504 15 202 0.0 19.3 0.00 0.00 0.00 75 1012.6
20260507180004 15 205 0.0 27.4 0.00 0.00 0.00 74 1012.6
20260507175505 15 205 0.0 27.4 0.00 0.00 0.00 73 1012.5
20260507175004 15 204 17.7 19.3 0.00 0.00 0.00 73 1012.6
20260507174504 16 204 0.0 11.3 0.00 0.00 0.00 72 1012.5
20260507174003 16 204 8.0 14.5 0.00 0.00 0.00 71 1012.3
20260507173004 16 203 0.0 9.7 0.00 0.00 0.00 69 1012.2
20260507172004 16 203 0.0 8.0 0.00 0.00 0.00 68 1012.0
20260507171506 17 203 0.0 8.0 0.00 0.00 0.00 67 1011.9
20260507171005 17 203 0.0 6.4 0.00 0.00 0.00 66 1011.9
20260507170504 17 0 0.0 0.0 0.00 0.00 0.00 65 1012.0
20260507170004 17 0 0.0 0.0 0.00 0.00 0.00 63 1012.0
20260507165504 18 0 0.0 0.0 0.00 0.00 0.00 62 1011.9
20260507165005 18 0 0.0 0.0 0.00 0.00 0.00 61 1011.8
20260507164503 18 216 0.0 9.7 0.00 0.00 0.00 60 1011.8
20260507163504 19 0 0.0 0.0 0.00 0.00 0.00 55 1012.1
20260507163005 19 0 0.0 0.0 0.00 0.00 0.00 51 1011.9
20260507162004 20 203 0.0 14.5 0.00 0.00 0.00 48 1011.7
20260507161504 20 205 0.0 14.5 0.00 0.00 0.00 48 1011.6
20260507161003 20 204 0.0 9.7 0.00 0.00 0.00 48 1011.3
20260507160504 20 203 0.0 9.7 0.00 0.00 0.00 48 1011.3
20260507160004 20 203 0.0 8.0 0.00 0.00 0.00 48 1011.2
20260507155505 21 205 0.0 9.7 0.00 0.00 0.00 47 1011.2
20260507155004 21 204 4.8 11.3 0.00 0.00 0.00 47 1011.0
20260507154003 21 203 3.2 9.7 0.00 0.00 0.00 46 1010.9
20260507153505 21 0 0.0 0.0 0.00 0.00 0.00 46 1010.9
20260507153003 21 0 0.0 0.0 0.00 0.00 0.00 46 1010.9
20260507152503 21 203 0.0 4.8 0.00 0.00 0.00 46 1010.8
20260507152004 21 203 0.0 4.8 0.00 0.00 0.00 45 1010.8
20260507151505 21 0 0.0 0.0 0.00 0.00 0.00 45 1010.7
20260507151003 21 203 0.0 4.8 0.00 0.00 0.00 45 1010.6
20260507150503 21 203 0.0 4.8 0.00 0.00 0.00 44 1010.7
20260507150004 22 203 0.0 6.4 0.00 0.00 0.00 44 1010.8
20260507145504 22 203 4.8 6.4 0.00 0.00 0.00 45 1010.7
20260507145004 22 181 0.0 6.4 0.00 0.00 0.00 45 1010.6
20260507144503 22 195 0.0 9.7 0.00 0.00 0.00 44 1010.6
20260507144003 22 203 0.0 11.3 0.00 0.00 0.00 45 1010.8
20260507143505 22 203 0.0 11.3 0.00 0.00 0.00 44 1010.8
20260507143003 22 201 0.0 14.5 0.00 0.00 0.00 44 1010.9
20260507142504 22 201 0.0 14.5 0.00 0.00 0.00 44 1010.9
20260507141505 22 0 0.0 0.0 0.00 0.00 0.00 45 1010.9
20260507141003 22 203 0.0 9.7 0.00 0.00 0.00 45 1010.9
20260507140004 22 0 0.0 0.0 0.00 0.00 0.00 45 1010.9
20260507135504 22 0 0.0 0.0 0.00 0.00 0.00 45 1010.9
20260507134504 22 203 0.0 4.8 0.00 0.00 0.00 46 1011.0
20260507134003 21 203 0.0 4.8 0.00 0.00 0.00 46 1011.2
20260507133504 21 203 0.0 4.8 0.00 0.00 0.00 46 1011.0
20260507133005 21 203 0.0 3.2 0.00 0.00 0.00 45 1011.1
20260507132504 21 0 0.0 0.0 0.00 0.00 0.00 45 1011.0
20260507131503 21 0 0.0 0.0 0.00 0.00 0.00 45 1011.2
20260507131005 21 0 0.0 0.0 0.00 0.00 0.00 45 1011.2
20260507130504 21 0 0.0 0.0 0.00 0.00 0.00 44 1011.0
20260507130004 21 225 0.0 8.0 0.00 0.00 0.00 44 1011.0
20260507125503 21 225 0.0 8.0 0.00 0.00 0.00 44 1011.4
20260507125005 21 225 0.0 4.8 0.00 0.00 0.00 44 1011.3
20260507124003 21 0 0.0 0.0 0.00 0.00 0.00 44 1011.4
20260507123504 21 90 0.0 4.8 0.00 0.00 0.00 45 1011.4
20260507123004 21 90 0.0 4.8 0.00 0.00 0.00 44 1011.4
20260507121503 21 226 0.0 9.7 0.00 0.00 0.00 45 1011.6
20260507121005 21 248 0.0 11.3 0.00 0.00 0.00 46 1011.5
20260507120004 21 203 0.0 9.7 0.00 0.00 0.00 47 1011.6
20260507115504 21 203 0.0 6.4 0.00 0.00 0.00 47 1011.6
20260507115004 20 0 0.0 0.0 0.00 0.00 0.00 47 1011.6
20260507114504 20 292 0.0 1.6 0.00 0.00 0.00 47 1011.8
20260507114003 20 305 0.0 4.8 0.00 0.00 0.00 47 1011.6
20260507113504 20 320 0.0 4.8 0.00 0.00 0.00 48 1011.5
20260507113004 20 270 0.0 8.0 0.00 0.00 0.00 48 1011.6
20260507112504 20 220 0.0 9.7 0.00 0.00 0.00 49 1011.7
20260507112003 20 203 0.0 9.7 0.00 0.00 0.00 50 1011.7
20260507111504 20 228 9.7 12.9 0.00 0.00 0.00 50 1011.8
20260507111003 20 222 0.0 12.9 0.00 0.00 0.00 50 1011.9
20260507110504 20 213 3.2 9.7 0.00 0.00 0.00 50 1011.9
20260507110003 19 0 0.0 0.0 0.00 0.00 0.00 50 1011.9
20260507105504 19 247 0.0 6.4 0.00 0.00 0.00 50 1012.0
20260507105004 19 222 0.0 9.7 0.00 0.00 0.00 50 1012.1
20260507104505 19 208 0.0 9.7 0.00 0.00 0.00 51 1012.2
20260507104003 19 0 0.0 0.0 0.00 0.00 0.00 50 1012.3
20260507103504 19 0 0.0 0.0 0.00 0.00 0.00 50 1012.4
20260507103003 19 341 0.0 11.3 0.00 0.00 0.00 50 1012.3
20260507102505 19 265 0.0 11.3 0.00 0.00 0.00 51 1012.3
20260507102003 19 214 0.0 9.7 0.00 0.00 0.00 52 1012.4
20260507101503 19 257 0.0 4.8 0.00 0.00 0.00 52 1012.4
20260507101004 19 220 0.0 11.3 0.00 0.00 0.00 53 1012.4
20260507100504 19 222 0.0 11.3 0.00 0.00 0.00 53 1012.3
20260507100004 18 225 0.0 4.8 0.00 0.00 0.00 53 1012.3
20260507095004 18 1 0.0 1.6 0.00 0.00 0.00 53 1012.3
20260507094505 18 1 0.0 1.6 0.00 0.00 0.00 54 1012.2
20260507094004 18 0 0.0 0.0 0.00 0.00 0.00 54 1012.3
20260507093504 18 203 0.0 9.7 0.00 0.00 0.00 55 1012.4
20260507093003 18 203 0.0 9.7 0.00 0.00 0.00 55 1012.4
20260507092505 18 0 0.0 0.0 0.00 0.00 0.00 55 1012.5
20260507092003 17 337 0.0 4.8 0.00 0.00 0.00 55 1012.3
20260507091504 17 337 0.0 4.8 0.00 0.00 0.00 55 1012.2
20260507091004 17 225 0.0 8.0 0.00 0.00 0.00 55 1012.1
20260507090004 17 314 0.0 8.0 0.00 0.00 0.00 55 1012.2
20260507085503 17 317 3.2 8.0 0.00 0.00 0.00 55 1012.0
20260507084505 17 0 0.0 0.0 0.00 0.00 0.00 55 1011.8
20260507084004 17 0 0.0 0.0 0.00 0.00 0.00 55 1011.7
20260507083503 17 202 0.0 11.3 0.00 0.00 0.00 55 1011.7
20260507083005 17 222 0.0 11.3 0.00 0.00 0.00 55 1011.6
20260507082503 17 274 0.0 8.0 0.00 0.00 0.00 56 1011.5
20260507082004 17 266 0.0 8.0 0.00 0.00 0.00 56 1011.5
20260507081504 17 247 0.0 8.0 0.00 0.00 0.00 56 1011.5
20260507081004 17 294 0.0 4.8 0.00 0.00 0.00 58 991.5
20260507080004 16 261 0.0 9.7 0.00 0.00 0.00 57 1011.7
20260507075005 16 0 0.0 0.0 0.00 0.00 0.00 58 1011.3
20260507074503 16 0 0.0 0.0 0.00 0.00 0.00 58 1011.4
20260507074003 16 6 0.0 9.7 0.00 0.00 0.00 58 1011.3
20260507073504 16 6 0.0 9.7 0.00 0.00 0.00 58 1011.3
20260507073005 16 346 0.0 9.7 0.00 0.00 0.00 59 1011.3
20260507072504 16 296 0.0 9.7 0.00 0.00 0.00 59 1011.3
20260507071504 16 216 6.4 9.7 0.00 0.00 0.00 60 1011.4
20260507071005 16 276 0.0 8.0 0.00 0.00 0.00 60 1011.3
20260507070503 16 276 0.0 8.0 0.00 0.00 0.00 60 1011.2
20260507070006 16 309 0.0 11.3 0.00 0.00 0.00 60 1011.3
20260507065504 16 310 0.0 11.3 0.00 0.00 0.00 60 1011.2
20260507065004 16 314 0.0 6.4 0.00 0.00 0.00 60 1011.2
20260507064503 16 337 0.0 6.4 0.00 0.00 0.00 60 1011.2
20260507064003 16 337 0.0 6.4 0.00 0.00 0.00 61 1011.1
20260507063504 16 0 0.0 0.0 0.00 0.00 0.00 61 1011.2
20260507063004 16 322 0.0 9.7 0.00 0.00 0.00 61 1011.2
20260507062503 16 323 0.0 11.3 0.00 0.00 0.00 60 1011.1
20260507062004 16 314 11.3 11.3 0.00 0.00 0.00 61 1011.0
20260507061503 16 203 0.0 9.7 0.00 0.00 0.00 61 1011.0
20260507061004 16 219 0.0 9.7 0.00 0.00 0.00 61 1010.9
20260507060507 16 240 0.0 9.7 0.00 0.00 0.00 61 1010.8
20260507060007 16 275 0.0 9.7 0.00 0.00 0.00 61 1010.8
20260507055507 16 310 0.0 9.7 0.00 0.00 0.00 61 1010.7
20260507055007 16 320 4.8 9.7 0.00 0.00 0.00 62 1010.6
20260507054508 15 0 0.0 0.0 0.00 0.00 0.00 62 1010.6
20260507054007 15 0 0.0 0.0 0.00 0.00 0.00 62 1010.6
20260507053506 15 0 0.0 0.0 0.00 0.00 0.00 62 1010.5
20260507053007 15 247 0.0 4.8 0.00 0.00 0.00 61 1010.4
20260507052509 15 247 0.0 8.0 0.00 0.00 0.00 61 1010.3
20260507052007 15 220 0.0 11.3 0.00 0.00 0.00 61 1010.3
20260507051506 15 207 0.0 11.3 0.00 0.00 0.00 61 1010.2
20260507051007 15 1 0.0 4.8 0.00 0.00 0.00 61 1010.2
20260507050508 15 304 0.0 8.0 0.00 0.00 0.00 61 1010.1
20260507050007 15 306 0.0 8.0 0.00 0.00 0.00 61 1009.9
20260507045507 15 278 0.0 6.4 0.00 0.00 0.00 61 1009.9
20260507045007 15 247 0.0 6.4 0.00 0.00 0.00 61 1009.6
20260507044506 15 283 0.0 8.0 0.00 0.00 0.00 61 1009.5
20260507044008 15 262 0.0 8.0 0.00 0.00 0.00 61 1009.5
20260507042507 15 250 0.0 8.0 0.00 0.00 0.00 61 1009.2
20260507042008 15 256 0.0 9.7 0.00 0.00 0.00 61 1009.2
20260507041507 15 274 4.8 9.7 0.00 0.00 0.00 61 1009.1
20260507041007 15 282 0.0 9.7 0.00 0.00 0.00 61 1009.2
20260507040507 15 278 3.2 11.3 0.00 0.00 0.00 61 1009.1
20260507040007 15 286 4.8 16.1 0.00 0.00 0.00 60 1009.0
20260507035506 15 289 0.0 19.3 0.00 0.00 0.00 60 1009.0
20260507035008 15 286 3.2 19.3 0.00 0.00 0.00 60 1008.9
20260507034507 15 285 0.0 14.5 0.00 0.00 0.00 60 1008.8
20260507034007 15 272 0.0 9.7 0.00 0.00 0.00 60 1008.7
20260507033506 15 266 0.0 9.7 0.00 0.00 0.00 61 1008.7
20260507032507 15 261 0.0 11.3 0.00 0.00 0.00 61 1008.6
20260507032006 15 270 0.0 12.9 0.00 0.00 0.00 61 1008.5
20260507031507 15 270 0.0 12.9 0.00 0.00 0.00 61 1008.6
20260507031007 15 278 0.0 9.7 0.00 0.00 0.00 61 1008.6
20260507030508 15 279 0.0 9.7 0.00 0.00 0.00 61 1008.4
20260507030007 15 277 0.0 11.3 0.00 0.00 0.00 61 1008.2
20260507025507 16 242 0.0 25.7 0.00 0.00 0.00 62 1008.3
20260507025007 16 232 0.0 25.7 0.00 0.00 0.00 62 1008.2
20260507024507 16 230 0.0 9.7 0.00 0.00 0.00 62 1008.1
20260507024007 16 206 0.0 12.9 0.00 0.00 0.00 62 1008.2
20260507023507 16 231 0.0 12.9 0.00 0.00 0.00 63 1008.3
20260507023007 16 234 0.0 12.9 0.00 0.00 0.00 63 1008.3
20260507022507 16 215 0.0 12.9 0.00 0.00 0.00 63 1008.1
20260507022008 16 206 0.0 12.9 0.00 0.00 0.00 63 1008.2
20260507021506 16 283 0.0 9.7 0.00 0.00 0.00 63 1008.3
20260507020507 16 248 0.0 14.5 0.00 0.00 0.00 63 1008.2
20260507020007 16 229 0.0 14.5 0.00 0.00 0.00 64 1008.1
20260507015508 16 234 0.0 8.0 0.00 0.00 0.00 63 1008.2
20260507015007 16 228 0.0 9.7 0.00 0.00 0.00 63 1008.1
20260507014007 16 260 6.4 8.0 0.00 0.00 0.00 63 1008.1
20260507013506 16 262 0.0 8.0 0.00 0.00 0.00 63 1008.1
20260507012506 16 259 4.8 9.7 0.00 0.00 0.00 63 1007.9
20260507012007 16 245 0.0 9.7 0.00 0.00 0.00 63 1007.7
20260507011507 16 247 0.0 8.0 0.00 0.00 0.00 63 1007.6
20260507010007 16 219 11.3 11.3 0.00 0.00 0.00 63 1007.7
20260507005507 16 221 0.0 11.3 0.00 0.00 0.00 63 1007.5
20260507004506 16 206 0.0 12.9 0.00 0.00 0.00 63 1007.7
20260507004008 16 221 0.0 12.9 0.00 0.00 0.00 63 1007.6
20260507003507 16 221 0.0 12.9 0.00 0.00 0.00 63 1007.6
20260507003006 16 298 0.0 6.4 0.00 0.00 0.00 63 1007.6
20260507002507 17 268 0.0 9.7 0.00 0.00 0.00 63 1007.5
20260507002008 17 271 0.0 17.7 0.00 0.00 0.00 63 1007.5
20260507001507 17 279 0.0 17.7 0.00 0.00 0.00 63 1007.3
20260507001006 17 215 0.0 12.9 0.00 0.00 0.00 63 1007.2
20260506235507 17 208 0.0 6.4 0.00 0.00 0.00 64 1007.0
20260506235007 17 236 0.0 16.1 0.00 0.00 0.00 64 1007.0
20260506234508 17 280 0.0 16.1 0.00 0.00 0.00 65 1007.0
20260506234007 17 251 0.0 22.5 0.00 0.00 0.00 65 1007.2
20260506233507 17 209 0.0 22.5 0.00 0.00 0.00 64 1007.1
20260506233007 17 213 0.0 12.9 0.00 0.00 0.00 64 1006.9
20260506232507 17 233 0.0 12.9 0.00 0.00 0.00 64 1006.9
20260506232009 17 225 0.0 17.7 0.00 0.00 0.00 64 1007.0
20260506231507 17 215 0.0 17.7 0.00 0.00 0.00 63 1006.9
20260506231007 17 214 0.0 16.1 0.00 0.00 0.00 63 1006.9
20260506230507 17 203 0.0 11.3 0.00 0.00 0.00 62 1006.6
20260506225507 17 214 0.0 9.7 0.00 0.00 0.00 62 1006.5
20260506225007 17 208 0.0 9.7 0.00 0.00 0.00 61 1006.5
20260506224507 17 203 0.0 6.4 0.00 0.00 0.00 61 1006.6
20260506224008 17 217 0.0 4.8 0.00 0.00 0.00 62 1006.3
20260506223507 17 209 0.0 16.1 0.00 0.00 0.00 62 1006.3
20260506222506 17 202 0.0 9.7 0.00 0.00 0.00 62 1006.0
20260506222007 17 203 0.0 9.7 0.00 0.00 0.00 62 1005.9
20260506221507 17 203 0.0 9.7 0.00 0.00 0.00 61 1005.6
20260506221009 17 200 0.0 8.0 0.00 0.00 0.00 61 1005.6
20260506220507 17 207 0.0 9.7 0.00 0.00 0.00 61 1005.6
20260506220007 17 209 0.0 9.7 0.00 0.00 0.00 61 1005.4
20260506215506 18 203 0.0 6.4 0.00 0.00 0.00 61 1005.3
20260506214506 18 203 0.0 12.9 0.00 0.00 0.00 61 1005.0
20260506214007 18 199 12.9 12.9 0.00 0.00 0.00 60 1004.9
20260506213507 18 199 0.0 14.5 0.00 0.00 0.00 60 1004.8
20260506213007 18 203 0.0 14.5 0.00 0.00 0.00 60 1005.0
20260506212507 18 202 0.0 9.7 0.00 0.00 0.00 60 1004.8